Regional Weather Roundup
Issued by NWS Newport/Morehead, NC

Home | Current Version | Previous Version | Text Only | Print | Product List | Glossary On
Versions: 1 2 3 4 5 6 7 8 9 10 11 12 13 14 15 16 17 18 19 20 21 22 23 24 25 26 27 28 29 30 31 32 33 34 35 36 37 38 39 40 41 42 43 44 45 46 47 48 49 50
000
ASUS42 KMHX 230422
RWRMHX
WEATHER ROUNDUP FOR EASTERN NORTH CAROLINA
NATIONAL WEATHER SERVICE NEWPORT/MOREHEAD CITY NC
1100 PM EST SAT NOV 22 2014

NOTE: "FAIR" INDICATES FEW OR NO CLOUDS BELOW 12,000 FEET
WITH NO SIGNIFICANT WEATHER AND/OR OBSTRUCTIONS TO VISIBILITY

NCZ015>017-031-032-045>047-102-103-230500-
NORTH COAST

CITY           SKY/WX    TMP DP  RH WIND       PRES   REMARKS
EDENTON          N/A     40  34  76 CALM      30.36S
ELIZABETH CITY CLEAR     40  33  76 CALM      30.37F
KITTY HAWK     CLEAR     46  30  54 SW3       30.35S
MANTEO         CLEAR     38  37  97 CALM      30.37F

$$

NCZ045>047-081-094-103-104-230500-
CENTRAL COAST

CITY           SKY/WX    TMP DP  RH WIND       PRES   REMARKS
FRISCO         PTCLDY    45  38  76 NE7       30.37F
SWANQUARTER      N/A     36 N/A N/A E2        30.33S

$$

NCZ095-097-098-100-101-230500-
SOUTHERN COAST

CITY           SKY/WX    TMP DP  RH WIND       PRES   REMARKS
BEAUFORT       MOCLDY    44  33  65 NE5       30.35F
CEDAR ISLAND     N/A     50 N/A N/A NE3       30.39S
JACKSONVILLE   MOCLDY    41  39  93 CALM      30.34F
PINEY ISLAND   PTCLDY    50  44  80 NE6       30.36F
WILMINGTON     PTCLDY    43  41  93 NE3       30.32F


$$

NCZ011>013-027>030-043-044-078>080-089-090>093-098-230500-
COASTAL PLAIN

CITY           SKY/WX    TMP DP  RH WIND       PRES   REMARKS
AHOSKIE        CLEAR     30  23  76 CALM      30.35F
CLINTON        MOCLDY    40  36  83 CALM      30.34F
ELIZABETHTOWN  CLOUDY    42  37  84 CALM      30.32F
GOLDSBORO      PTCLDY    38  32  79 CALM      30.33F
GREENVILLE     PTCLDY    36  32  87 CALM      30.34F
HAVELOCK       MOCLDY    39  35  86 CALM      30.36F
KENANSVILLE    MOCLDY    36  33  90 CALM      30.34F
KINSTON        PTCLDY    36  31  84 CALM      30.35F
NEW BERN       MOCLDY    39  35  86 CALM      30.36F
RICHLANDS      MOCLDY    37  34  87 CALM      30.35F
ROCKY MOUNT    PTCLDY    32  25  75 CALM      30.35F
WASHINGTON     PTCLDY    34  31  87 CALM      30.34F
WHITEVILLE     PTCLDY    43  39  87 CALM      30.32F

$$

AMZ130-135-150-152-154-156-158-170-250-252-270-ANZ085-086-088-633-658-670-230500-
MARINE OBSERVATIONS

STATION/POSITION TIME  TEMP    WIND        PRES    WAVE   SWELL
                       AIR SEA DIR/SP/G            HT/PER HT/PER
                 (UTC) (F)     (DEG/KT/KT) (MB)    (FT/S) (FT/S)
CHESAPEAKE LIGHT 0400   51     210/ 15/ 17 1028.3
64 E VA BEACH    0400   57 60  220/ 14/ 16 1027.8    2/ 8   2/ 8
DUCK             0400   47 54  210/  6/  7 1027.4
2 E DUCK         0400      56                N/A     2/ 8
10 NE DUCK       0400      57                N/A     2/ 8
OREGON INLET     0400   47 51  200/  2/  2 1028.2
13E OREGON INLT  0400      60                N/A     2/ 8
HATTERAS CG      0400   47 51   60/  4/  5 1028.4
DIAMOND BUOY     0400   63     210/ 10/ 14 1028.7    3/ 8   3/ 8
17 S OCRACOKE    NOT AVBL
CAPE LOOKOUT     0400   50      30/  8/ 10 1027.4
BEAUFORT LAB     0400   46 53   20/  6/  7 1026.5
30 SE NEW RIVER  0400   66 69  160/ 12/ 16 1026.7    2/ 8   2/ 8
5 SE WRIGHTSVLE  0400   55 59   70/  8/ 10 1026.7
225 S CAPE HAT   0331   67 73  130/ 14/ 16 1027.5    5/ 8   3/ 8
41 SE CHARLESTON 0400   70 75  110/ 16/ 19 1024.7    5/ 6   3/ 8

$$


USA.gov is the U.S. government's official web portal to all federal, state and local government web resources and services.